Regional Weather Roundup
Issued by NWS Cleveland, OH

Home | Current Version | Previous Version | Graphics & Text | Print | Product List | Glossary On
Versions: 1 2 3 4 5 6 7 8 9 10 11 12 13 14 15 16 17 18 19 20 21 22 23 24 25 26 27 28 29 30 31 32 33 34 35 36 37 38 39 40 41 42 43 44 45 46 47 48 49 50
000
ASUS41 KCLE 170400
RWRCLE
OHIO REGIONAL WEATHER ROUNDUP
NATIONAL WEATHER SERVICE WILMINGTON, OH
1200 AM EDT WED SEP 17 2014

NOTE: "FAIR" INDICATES FEW OR NO CLOUDS BELOW 12,000 FEET WITH NO
SIGNIFICANT WEATHER AND/OR OBSTRUCTIONS TO VISIBILITY.

OHZ001>008-015>018-024>027-034-035-043-044-170500-
   NORTHWEST OHIO

CITY           SKY/WX    TMP DP  RH WIND       PRES   REMARKS
DEFIANCE       CLEAR     49  45  86 CALM      30.11R
FINDLAY        CLEAR     50  46  86 SW5       30.09S
TOLEDO EXPRESS CLEAR     52  46  80 W5        30.10R
TOLEDO METCALF CLEAR     50  44  80 S3        30.09S
LIMA           CLEAR     49  45  86 CALM      30.10S
$$

OHZ009>014-019>023-028>033-038-089-170500-
   NORTHEAST OHIO

CITY           SKY/WX    TMP DP  RH WIND       PRES   REMARKS
CLE-HOPKINS    CLEAR     51  47  86 S3        30.10F
CLE-LAKEFRONT  CLEAR     54  48  80 SE7       30.07F
CUY CO. ARPT   NOT AVBL
LORAIN-ELYRIA  CLEAR     51  46  83 CALM      30.09F
ASHTABULA      CLEAR     46  44  93 CALM      30.09F FOG
AKRON-CANTON   PTCLDY    53  47  79 N3        30.09F
WOOSTER        NOT AVBL
MANSFIELD      CLEAR     49  48  97 CALM      30.10S
YOUNGSTOWN     PTCLDY    47  46  97 CALM      30.09S
$$

OHZ042-051>053-060>062-070>072-077>081-170500-
  SOUTHWEST OHIO

CITY           SKY/WX    TMP DP  RH WIND       PRES   REMARKS
CINC-COVINGTON MOCLDY    57  50  77 N5        30.11S
CINC-LUNKEN    CLOUDY    58  51  78 NE3       30.12S
HAMILTON       CLOUDY    57  54  89 CALM      30.12S
DAYTON         NOT AVBL
WRIGHT-PAT AFB CLEAR     49  47  93 CALM      30.11R
DAYTON GENERAL CLEAR     52  50  93 CALM      30.11R
WILMINGTON     CLEAR     50  46  86 CALM      30.10F
$$

OHZ036-037-039>041-045>050-054>059-063>069-073>076-082>088-170500-
  CENTRAL AND SOUTHEAST OHIO

CITY           SKY/WX    TMP DP  RH WIND       PRES   REMARKS
COLUMBUS       CLEAR     54  48  80 CALM      30.10R
OSU AIRPORT    CLEAR     51  47  86 W5        30.10S
BOLTON FIELD   NOT AVBL
RICKENBACK AFB NOT AVBL
NEWARK         FOG       45  43  93 CALM      30.10S VSB 1/4
MARION         CLEAR     50  47  89 CALM      30.10S
LANCASTER      CLEAR     46  44  93 CALM      30.11S FOG
ZANESVILLE     CLEAR     51  47  86 CALM      30.10R
NEW PHILLY     MOCLDY    50  49  96 CALM      30.10S
$$


USA.gov is the U.S. government's official web portal to all federal, state and local government web resources and services.